Location: El Portezuelo
(28.4984°N, 16.3589°W)
Time: 09:14:42
(UTC+00:00)

ATLAS 2AS CENTAUR R/B - Pass Details

Date: 20 January 2020
Orbit: 927 x 1285 km, 63.7° (Epoch: 21 February)

Event Time Altitude Azimuth Distance (km) Brightness Sun altitude
Rises 06:18:34 0° 207° (SSW) 4,094 5.6 -21.7°
Reaches altitude 10° 06:21:15 10° 207° (SSW) 3,171 5.0 -21.2°
Maximum altitude 06:29:01 88° 294° (WNW) 1,274 3.0 -19.5°
Drops below altitude 10° 06:37:05 10° 28° (NNE) 3,286 5.4 -17.8°
Sets 06:39:55 0° 28° (NNE) 4,250 6.0 -17.2°
